2020 HW6
ephemeris date magn radius delta ra dec elong phase
Today21 Oct 202529.01.183 AU1.861 AU15h53m-25°31'34.5°28.5°
2020 HW6 - 2025-10-21
astro.vanbuitenen.nl


 
-1 year
-1 month
-1 day
Now
+1 day
+1 month
+1 year

The interactive orbit chart above shows the body's path through the solar system and its position at the given date. Green and blue lines are shown perpendicular to the ecliptic plane: Green if the path is above the ecliptic plane, blue if it is below. (Left-click and drag to rotate the view; Right-click and drag to move the view; Use scroll wheel to zoom in our out.)

The orbital elements of 2020 HW6 are:

            e (Eccentricity)                : 0.1985127
            a (Semimajor axis)              : 1.2084701
            i (Inclination)                 : 10.18751
            Ω (Longitude of ascending node) : 37.78298
            ω (Argument of perihelion)      : 137.34082
            M (Mean anomaly)                : 307.25902
            Epoch                           : 2025 May 05

            L (Longitude of perihelion)     : -4.42278
            B (Latitude of perihelion)      : 6.88365
            P (Orbital period in years)     : 1.33            
        

The light curve chart below shows the estimated development of the minor planet's magnitude.


The all-sky chart below shows the path of the minor planet over the same period as the light curve. The current position is marked yellow.





The following chart shows the path of the minor planet in the next few days. The field of view is optimized for (~10x50) binoculars and finderscopes.




Ephemerides:
Date       Time       RA (2000)    DEC (2000)    delta   radius  elong  phase   PA    magn
2025-10-21 00:00 UT   15 53 31.9   -25 31 03     1.861    1.183   34.5   28.5   110   29.0 
2025-10-21 02:04 UT   15 53 52.0   -25 32 18     1.861    1.183   34.5   28.4   110   29.0 
2025-10-22 00:00 UT   15 57 25.5   -25 45 20     1.866    1.186   34.4   28.3   109   29.0 
2025-10-23 00:00 UT   16 01 19.4   -25 59 12     1.870    1.189   34.3   28.2   109   29.0 
2025-10-24 00:00 UT   16 05 13.5   -26 12 39     1.875    1.193   34.2   28.0   109   29.0 
2025-10-25 00:00 UT   16 09 07.8   -26 25 40     1.880    1.196   34.2   27.8   109   29.0 
2025-10-26 00:00 UT   16 13 02.3   -26 38 16     1.885    1.199   34.1   27.7   108   29.0 
2025-10-27 00:00 UT   16 16 57.0   -26 50 27     1.890    1.202   34.0   27.5   108   29.0 
2025-10-28 00:00 UT   16 20 51.9   -27 02 12     1.895    1.205   33.9   27.4   108   29.0 
2025-10-29 00:00 UT   16 24 46.8   -27 13 31     1.900    1.208   33.8   27.2   108   29.0 
2025-10-30 00:00 UT   16 28 41.9   -27 24 25     1.905    1.211   33.7   27.1   107   29.0 


    Terminology:
            
    delta:  distance between minor planet and earth in AU
    radius: distance between minor planet and sun in AU
    magn:   magnitude (brightness) estimate    
    ra:     right ascension in hours (24h = 360deg)
    dec:    declination in degrees
    elong:  elongation in degrees (angle sun-earth-minor planet)    
    phase:  phase angle in degrees (angle sun-minor planet-earth)        
    AU:     Astronomical Unit (mean distance between earth and sun: 149597870.7 km
    

Orbital elements provided by the MPC (Minor Planet Center).
Calculations by a modified version of AAPlus, a C# implementation of the AA+ project by PJ Naughter from the algorithms presented in the book "Astronomical Algorithms" by Jean Meeus.
NGC2000 dso catalog and star labels from VizieR as provided by the Strasbourg astronomical Data Center.
Tycho2 catalog from the ESO archive.